Location: Unspecified
(41.5000°N, 0.0000°E)
Time: 18:21:54
(UTC+00:00)

deb Explorer IX - Pass Details

Date: 26 June 2019
Orbit: 540 x 1111 km, 38.8° (Epoch: 23 August)

Event Time Altitude Azimuth Distance (km) Brightness Sun altitude
Rises 11:48:25 0° 231° (SW) 3,548 ? 71.6°
Reaches altitude 10° 11:51:00 10° 224° (SW) 2,687 ? 71.7°
Maximum altitude 11:57:11 43° 155° (SSE) 1,418 ? 71.8°
Drops below altitude 10° 12:03:59 10° 87° (E) 2,952 ? 71.9°
Sets 12:06:57 0° 81° (E) 3,930 ? 71.8°
